Погода в Юрюнг-Хае

Россия / Республика Саха (Якутия)     72°48′38″N   113°13′55″E
темп.,
°C
ветер,
м/с
пор.,
м/с
влажн.,
%
обл.,
%
осадки,
мм/ч
давл.,
гПа
погр.,
м
27 февраля, сб
сб2700:00−34ю33831 0.0 103019
03:00−34ююз238320 0.0 102919
06:00−35ю228222 0.0 102919
09:00−35ююз228140 0.0 103019
12:00−33ю227974 0.0 103019
15:00−30ю118187 0.0 102919
18:00−30вюв0177100 0.0 102919
21:00−31в1178100 0.0 102819
28 февраля, вс
вс2800:00−30ссв1179100 0.0 102819
03:00−31св0179100 0.0 102719
06:00−33с127861 0.0 102719
09:00−35сз117833 0.0 102719
12:00−34сз227921 0.0 102819
15:00−32сз238559 0.0 102825
18:00−32сз1187100 0.0 102919
21:00−32сз3389100 0.0 102936
1 марта, пн
пн100:00−32сз3389100 0.0 102931
03:00−32сз3390100 0.0 102843
06:00−32сз2291100 0.0 102920
09:00−32сз2392100 0.0 102823
12:00−32ссз239489 0.0 102821
15:00−33ссз229481 0.0 102819
18:00−35с229165 0.0 102819
21:00−35ссв229042 0.0 102719
2 марта, вт
вт200:00−35св229851 0.0 102719
03:00−36всв239975 0.0 102719
06:00−37всв239987 0.0 102819
09:00−38в229886 0.0 102818
12:00−38в229782 0.0 102818
15:00−38вюв229571 0.0 102918
18:00−39в229567 0.0 103018
21:00−40вюв129648 0.0 103018
3 марта, ср
ср300:00−41вюв119718 0.0 103018
03:00−41вюв119819 0.0 103018
06:00−41вюв119722 0.0 103018
09:00−41вюв119723 0.0 103118
12:00−40вюв119528 0.0 103018
15:00−39в119429 0.0 103018
18:00−40всв119823 0.0 103018
21:00−41св0110028 0.0 103018